Кутима

Россия / Иркутская область     57°04′36″N   108°31′33″E
темп.,
°C
ветер,
м/с
пор.,
м/с
влажн.,
%
обл.,
%
осадки,
мм/ч
давл.,
гПа
погр.,
м
16 мая, вс
вс1623:00+4ююз51398100 2.1 10071394
02:00+4юз3998100 5.2 10061073
05:00+3юз389658 1.0 1007657
08:00+3зсз4677100 1.6 10091252
11:00+5зюз5954100 0.4 10092340
14:00+8зсз693590 0.4 10082757
17:00+9зсз51034100 0.0 10083145
20:00+5сз2348100 0.0 100973
17 мая, пн
пн1723:00+1юв1162100 0.0 100910
02:000ю1165100 0.0 100910
05:00−1всв1170100 0.0 100810
08:00+4ссв234899 0.0 1008914
11:00+5сз3441100 0.1 10081954
14:00+7сз3634100 0.6 10062686
17:00+6ссз3636100 0.1 10062330
20:00+3с4656100 0.2 1009511
18 мая, вт
вт1823:000св1168100 0.1 101110
02:00−1з117177 0.1 101110
05:00−2ююз228019 0.1 101146
08:00+2зюз365151 0.3 10111263
11:00+5з4832100 0.3 10083117
14:00+6зсз4729100 0.4 10072566
17:00+7сз372799 0.0 10042540
20:00+5сз1140100 0.0 100412
19 мая, ср
ср1923:00+1юв1148100 0.0 100410
02:00−1ююв115599 0.0 100410
05:00−2ю115879 0.0 100410
08:00+3ссз234012 0.0 1004814
11:00+6сз3630100 0.0 10042671
14:00+8ссз4727100 0.0 10032718
17:00+7ссз4631100 0.0 10042270
20:00+5с234199 0.0 1006125
20 мая, чт
чт2023:000всв11552 0.0 100710
02:00−1всв225752 0.0 100812
05:00−1св1157100 0.0 100817
08:00+5ссв3435100 0.0 1007980
11:00+9всв2323100 0.0 10051561
14:00+12св332176 0.0 10031715
17:00+12всв4524100 0.0 10031948
20:00+9св41037100 0.0 1004600